Pilanesberg International Airport

Jump to: basic info | weather | frequencies | runways | comments

Related pages: nearby airports | nearby navaids | notams | map

Basic information (top)

Codes: NTY FAPN
Location: lon -25.333799, lat 27.173401, elev 3,412 ft / 1,040 m msl
Status: small_airport
Scheduled airline service: no
Links: Wikipedia Mobile

Weather (top)

Current conditions (rec'd 2015/01/27 20:00Z):

FAPN 272000Z AUTO 20014G24KT //// // ////// 19/17 Q1016

Airport forecast (rec'd 2015/01/22 10:39Z):

TAF FAPN 220900Z 2210/2218 VRB04KT CAVOK 
      BECMG 2210/2212 SCT040 PROB40 
      TEMPO 2213/2218 -TSRA FEW040CB TX31/2213ZTN24/2218Z

Frequencies (top)

Verify before use: may be inaccurate or out of date.

TWR: 118.4 MHz (TWR)

Runways (top)

05/23: 9,022 x 98 ft (2,750 x 30 m) — paved — lighted

Latest comments (top)

For all First Time Night Flyers!!!: Pilanesberg Int., amazing airport ... [read]

Flighs: Kindly request if you do have flights ... [read]

More... (top)

See also NOTAMs and nearby airports and navaids, or visit the Pilanesberg International Airport page at the main OurAirports website..